[[{"header":{"parameterUnit":"m.s-1","parameterCategory":2,"la1":30.2991,"la2":30.254,"lo1":-89.0895,"lo2":-89.0444,"dy":0.0017,"dx":0.0017,"nx":28,"ny":28,"refTime":"2026-02-25T09:00:00:Z","depth":"0","parameterNumber":2,"parameterNumberName":"U-component_of_CURRENTS"},"data":[0,0,0,0,0,0,0,0,0,0,0,0,0,0,0,0,0,0,0,0,0,0,0,0,0,0,0,0,0,0,0,0,0,0,0,0,0,0,0,0,0,0,0,0,0,0,0,0,0,0,0,0,0,0,0,0,0,0,-0.2559,-0.2559,0,-0.258,-0.258,-0.258,-0.2536,-0.2535,-0.2533,-0.2532,-0.2472,-0.2472,-0.2471,0,0,0,0,0,0,0,0,0,0,0,0,0,-0.2391,-0.2394,-0.2559,-0.2559,-0.256,-0.258,-0.258,-0.258,-0.2536,-0.2535,-0.2533,-0.2532,-0.2472,-0.2472,-0.2471,0,0,0,0,0,0,0,0,0,0,0,0,0,-0.244,-0.2396,-0.2559,-0.2543,-0.2542,-0.258,-0.258,-0.258,-0.2536,-0.2535,-0.2533,-0.2531,-0.2473,-0.2472,-0.2471,-0.2501,0,0,-0.2469,-0.2468,0,0,0,0,0,0,0,0,-0.2438,-0.2446,-0.2545,-0.2544,-0.2543,-0.2556,-0.2499,-0.255,-0.2537,-0.2535,-0.2532,-0.253,-0.2496,-0.2493,-0.2498,-0.2498,-0.2495,-0.2469,-0.2468,-0.2468,-0.2467,0,0,0,0,0,0,0,-0.2434,-0.2445,-0.2564,-0.2545,-0.2544,-0.2504,-0.251,-0.2508,-0.2521,-0.2535,-0.2533,-0.2541,-0.2494,-0.2499,-0.2496,-0.2494,-0.2469,-0.2468,-0.2467,-0.2467,-0.2556,-0.2559,0,0,0,0,0,0,-0.2446,-0.2443,-0.2563,-0.2565,-0.2489,-0.2509,-0.2515,-0.2551,-0.2523,-0.2518,-0.2542,-0.2539,-0.2501,-0.2497,-0.2493,-0.2557,-0.2468,-0.2467,-0.2466,-0.2553,-0.2557,-0.256,0,0,0,0,0,0,-0.2443,-0.2458,-0.2563,-0.2504,-0.2515,-0.2515,-0.2555,-0.2553,-0.2553,-0.253,-0.2522,-0.2545,-0.2499,-0.2495,-0.2509,-0.2552,-0.2467,-0.2466,-0.255,-0.2554,-0.2558,-0.2663,0,0,0,0,0,0,-0.2438,-0.2457,-0.2486,-0.2507,-0.2519,-0.2601,-0.2557,-0.2554,-0.2563,-0.2558,-0.253,-0.2523,-0.2498,-0.2511,-0.2508,-0.255,-0.2465,-0.2546,-0.2552,-0.2557,-0.2656,-0.267,-0.2683,0,0,0,0,0,-0.2433,-0.2482,-0.2488,-0.2502,-0.256,-0.2604,-0.2607,-0.2596,-0.2565,-0.2585,-0.2566,-0.2524,-0.2543,-0.2512,-0.2509,-0.2551,-0.2544,-0.255,-0.2556,-0.265,-0.2668,-0.2682,0,0,0,0,0,0,-0.2428,-0.2483,-0.2489,-0.2555,-0.2584,-0.2598,-0.2609,-0.2603,-0.2605,-0.259,-0.2554,-0.2548,-0.2582,-0.2557,-0.2524,-0.2596,-0.2539,-0.2545,-0.2612,-0.2628,-0.2641,-0.2631,-0.2465,0,0,0,0,0,-0.2444,-0.2487,-0.2533,-0.2582,-0.2598,-0.2603,-0.2616,-0.2616,-0.2621,-0.2618,-0.2605,-0.2596,-0.261,-0.2608,-0.2614,-0.2647,-0.2579,-0.2676,-0.2689,-0.27,-0.2693,-0.262,-0.2625,-0.2581,-0.2581,-0.2581,0,0,-0.2454,-0.2488,-0.2514,-0.2582,-0.2593,-0.2646,-0.2605,-0.2635,-0.2677,-0.2613,-0.2652,-0.2641,-0.2631,-0.2674,-0.2687,-0.2654,-0.2685,-0.2709,-0.2718,-0.2704,-0.2627,-0.263,-0.2634,-0.2585,-0.2584,-0.2584,0,0,-0.2491,-0.2528,-0.2575,-0.2612,-0.2651,-0.2668,-0.2682,-0.271,-0.2716,-0.2762,-0.2732,-0.2744,-0.2762,-0.2766,-0.2768,-0.2859,-0.2761,-0.2868,-0.292,-0.2851,-0.2852,-0.2852,-0.2791,-0.2784,-0.287,-0.2871,-0.2871,0,-0.2497,-0.257,-0.2593,-0.265,-0.2676,-0.2685,-0.2736,-0.277,-0.2801,-0.2799,-0.2789,-0.2807,-0.2809,-0.2841,-0.2889,-0.2888,-0.2822,-0.2856,-0.2863,-0.2862,-0.286,-0.2796,-0.2788,-0.2876,-0.2876,-0.2875,-0.2875,0,-0.2569,-0.2631,-0.2657,-0.2736,-0.2774,-0.2815,-0.2868,-0.2899,-0.2901,-0.2914,-0.2939,-0.2941,-0.2931,-0.2964,-0.2961,-0.2971,-0.2921,-0.2886,-0.281,-0.287,-0.2801,-0.279,-0.2885,-0.2883,-0.2881,-0.2879,0,0,-0.256,-0.2683,-0.2689,-0.2724,-0.2814,-0.2841,-0.2925,-0.2974,-0.2973,-0.3026,-0.3011,-0.309,-0.3047,-0.3049,-0.3038,-0.3011,-0.2979,-0.2955,-0.2948,-0.2874,-0.2813,-0.2757,-0.2739,-0.2924,-0.2922,-0.2921,-0.2774,0,-0.2595,-0.2703,-0.2757,-0.2843,-0.2895,-0.2933,-0.2991,-0.3037,-0.3048,-0.3044,-0.3058,-0.305,-0.3093,-0.3063,-0.3056,-0.2984,-0.2952,-0.3021,-0.2783,-0.2777,-0.2702,-0.2726,-0.2595,-0.2449,-0.2763,-0.2761,-0.276,0,-0.2641,-0.27,-0.2795,-0.2866,-0.2884,-0.2937,-0.2964,-0.3016,-0.3039,-0.3033,-0.3038,-0.3023,-0.3033,-0.3027,-0.2953,-0.2983,-0.2914,-0.2865,-0.2856,-0.2752,-0.27,-0.2439,-0.2417,-0.2399,-0.2742,-0.2744,-0.2745,0,-0.26,-0.2715,-0.2775,-0.2812,-0.2912,-0.293,-0.296,-0.2999,-0.2993,-0.3,-0.2964,-0.2977,-0.2934,-0.2886,-0.2845,-0.2868,-0.2716,-0.2717,-0.2606,-0.2601,-0.2417,-0.2398,-0.2326,-0.2633,-0.2633,-0.2633,-0.2634,0,-0.2616,-0.2656,-0.2753,-0.2789,-0.28,-0.2884,-0.2867,-0.2904,-0.2905,-0.2871,-0.293,-0.2887,-0.2888,-0.2824,-0.2795,-0.267,-0.2669,-0.2607,-0.2554,-0.2456,-0.2444,-0.2361,-0.2397,-0.2628,-0.2629,-0.263,-0.2631,0,-0.257,-0.2654,-0.2706,-0.2787,-0.2792,-0.2793,-0.2794,-0.2762,-0.2804,-0.2752,-0.2749,-0.2777,-0.271,-0.2699,-0.2592,-0.2571,-0.2424,-0.2425,-0.2328,-0.2267,-0.2169,-0.2217,-0.2092,-0.2036,-0.2272,-0.227,-0.2268,0,-0.2559,-0.2593,-0.2659,-0.2647,-0.2675,-0.2672,-0.264,-0.269,-0.2661,-0.268,-0.2637,-0.26,-0.2543,-0.2406,-0.2348,-0.2251,-0.2287,-0.209,-0.2133,-0.214,-0.2153,-0.2211,-0.2179,-0.1933,-0.1928,-0.1924,-0.1921,0,-0.2498,-0.2524,-0.2552,-0.2528,-0.2503,-0.2462,-0.2445,-0.2422,-0.2468,-0.2454,-0.2417,-0.2381,-0.2284,-0.2145,-0.2061,-0.2001,-0.2046,-0.2011,-0.2014,-0.1885,-0.194,-0.1867,-0.2079,-0.1888,-0.1891,-0.1894,-0.1896,-0.1897,-0.2401,-0.2393,-0.2409,-0.2363,-0.2324,-0.2244,-0.2153,-0.2169,-0.2123,-0.2072,-0.2169,-0.2046,-0.1994,-0.1857,-0.1804,-0.1681,-0.1788,-0.164,-0.1696,-0.1753,-0.1711,-0.1875,-0.1639,-0.1641,-0.1642,-0.1644,-0.1645,0,-0.2237,-0.2244,-0.2219,-0.2144,-0.2012,-0.2057,-0.1985,-0.1873,-0.1783,-0.1767,-0.173,-0.1653,-0.1555,-0.1524,-0.1454,-0.139,-0.1379,-0.1373,-0.1412,-0.1392,-0.1492,-0.1489,-0.1213,-0.1213,-0.1213,-0.1213,-0.1213,-0.1213,-0.2145,-0.2076,-0.2074,-0.1838,-0.1765,-0.1548,-0.1476,-0.1379,-0.1308,-0.1169,-0.1101,-0.1075,-0.1213,-0.1398,-0.1334,-0.1265,-0.1269,-0.1218,-0.1293,-0.1367,-0.1397,-0.1425,-0.143,-0.1146,-0.1146,-0.1109,-0.1109,-0.1109]},{"header":{"parameterUnit":"m.s-1","parameterCategory":2,"la1":30.2991,"la2":30.254,"lo1":-89.0895,"lo2":-89.0444,"dy":0.0017,"dx":0.0017,"nx":28,"ny":28,"refTime":"2026-02-25T09:00:00:Z","depth":"0","parameterNumber":3,"parameterNumberName":"V-component_of_CURRENTS"},"data":[0,0,0,0,0,0,0,0,0,0,0,0,0,0,0,0,0,0,0,0,0,0,0,0,0,0,0,0,0,0,0,0,0,0,0,0,0,0,0,0,0,0,0,0,0,0,0,0,0,0,0,0,0,0,0,0,0,0,0.0435,0.0437,0,0.0568,0.057,0.0571,0.0632,0.0632,0.0632,0.0632,0.0764,0.0768,0.0771,0,0,0,0,0,0,0,0,0,0,0,0,0,0.0173,0.0177,0.0435,0.0437,0.0439,0.0568,0.057,0.0572,0.0632,0.0632,0.0632,0.0632,0.0763,0.0767,0.0771,0,0,0,0,0,0,0,0,0,0,0,0,0,0.0294,0.0179,0.0435,0.0485,0.049,0.0568,0.057,0.0572,0.0633,0.0632,0.0632,0.0632,0.0761,0.0767,0.0772,0.0809,0,0,0.0789,0.0791,0,0,0,0,0,0,0,0,0.0287,0.0304,0.0476,0.0481,0.0488,0.0584,0.0526,0.0651,0.0633,0.0578,0.0632,0.0632,0.0704,0.0714,0.0739,0.0815,0.0821,0.0789,0.0792,0.0795,0.0796,0,0,0,0,0,0,0,0.0279,0.0298,0.0488,0.0477,0.0485,0.0479,0.0497,0.0549,0.064,0.0583,0.0588,0.0603,0.0707,0.0734,0.0743,0.0823,0.0789,0.0794,0.0797,0.0799,0.0889,0.0888,0,0,0,0,0,0,0.0267,0.0291,0.0484,0.0492,0.0385,0.0484,0.0504,0.0553,0.064,0.0653,0.0603,0.0605,0.0725,0.0736,0.0748,0.0751,0.0795,0.08,0.0803,0.089,0.0889,0.0888,0,0,0,0,0,0,0.0262,0.0285,0.0478,0.0392,0.0416,0.0489,0.0544,0.0556,0.0582,0.0655,0.0668,0.0616,0.0725,0.074,0.0768,0.0758,0.0802,0.0807,0.0891,0.089,0.0888,0.0787,0,0,0,0,0,0,0.0254,0.0283,0.0308,0.0393,0.0421,0.0505,0.0544,0.0559,0.0592,0.0596,0.0671,0.0683,0.0726,0.0759,0.0773,0.0767,0.0811,0.0892,0.089,0.0889,0.0791,0.0782,0.0775,0,0,0,0,0,0.0245,0.0279,0.0309,0.0332,0.0457,0.0505,0.0518,0.0568,0.0592,0.0593,0.0634,0.0681,0.0759,0.0763,0.078,0.0774,0.0893,0.0891,0.0889,0.0795,0.0784,0.0775,0,0,0,0,0,0,0.0175,0.0292,0.0326,0.0395,0.0436,0.0514,0.0524,0.0564,0.0602,0.0602,0.0673,0.0687,0.0706,0.0753,0.0756,0.0794,0.0834,0.0835,0.0757,0.0747,0.0739,0.0739,0.0816,0,0,0,0,0,0.0173,0.0236,0.0319,0.0369,0.0386,0.0454,0.048,0.0512,0.056,0.0578,0.063,0.0678,0.0714,0.0738,0.0776,0.0804,0.0832,0.081,0.0802,0.0794,0.0805,0.0828,0.0822,0.0881,0.0881,0.0882,0,0,0.0165,0.0231,0.027,0.0357,0.0395,0.0405,0.0469,0.0497,0.0505,0.0586,0.0605,0.0651,0.0712,0.073,0.0745,0.0769,0.0784,0.0792,0.0785,0.08,0.0825,0.0819,0.0814,0.088,0.088,0.0881,0,0,0.0136,0.0226,0.0244,0.0272,0.032,0.0367,0.037,0.0438,0.0463,0.0489,0.0541,0.0581,0.0642,0.0684,0.0713,0.0687,0.0734,0.0696,0.0663,0.0684,0.0679,0.0676,0.0665,0.0661,0.0697,0.0697,0.0697,0,0.0109,0.0152,0.0246,0.0241,0.0252,0.0342,0.0322,0.0368,0.0434,0.0455,0.0474,0.0572,0.0622,0.066,0.0646,0.0671,0.0676,0.0693,0.0672,0.0669,0.0668,0.0658,0.0656,0.0692,0.0692,0.0693,0.0693,0,0.0076,0.0095,0.0097,0.0137,0.0161,0.0161,0.0227,0.0258,0.0307,0.0358,0.0405,0.0477,0.0538,0.0557,0.0597,0.0613,0.0616,0.0651,0.0694,0.0655,0.0648,0.0647,0.0684,0.0686,0.0688,0.0689,0,0,0.0058,0.007,0.0069,0.0042,0.01,0.0111,0.0135,0.0182,0.0196,0.0274,0.029,0.0376,0.0436,0.0474,0.0535,0.0567,0.0547,0.0598,0.0602,0.0581,0.0561,0.0607,0.0611,0.0571,0.0571,0.0571,0.0546,0,-0.001,-0.007,-0.0021,-0.0072,-0.0104,-0.0019,-0.0006,0.0054,0.0118,0.0158,0.0267,0.0303,0.0398,0.0414,0.0466,0.0528,0.0546,0.0549,0.0609,0.0611,0.0653,0.0613,0.0674,0.0662,0.0546,0.0546,0.0546,0,-0.0063,-0.01,-0.018,-0.02,-0.0201,-0.0202,-0.016,-0.0137,-0.0035,0.001,0.01,0.0184,0.0265,0.0332,0.0443,0.0435,0.049,0.0542,0.0543,0.0631,0.0658,0.0692,0.0665,0.0836,0.0545,0.0545,0.0545,0,-0.0157,-0.0202,-0.0278,-0.0287,-0.0287,-0.0291,-0.0267,-0.0182,-0.0166,-0.0081,-0.0062,0.0064,0.0111,0.0217,0.0368,0.0384,0.0471,0.0502,0.0595,0.0596,0.0688,0.0699,0.0838,0.0561,0.0561,0.0561,0.0561,0,-0.0247,-0.0303,-0.0332,-0.0381,-0.0442,-0.0395,-0.0423,-0.0368,-0.0307,-0.029,-0.0148,-0.011,0.0085,0.0183,0.0309,0.0457,0.0427,0.0585,0.0601,0.065,0.0657,0.0845,0.0909,0.056,0.0561,0.0561,0.0561,0,-0.0332,-0.036,-0.0449,-0.0487,-0.0498,-0.0534,-0.0527,-0.0538,-0.0463,-0.044,-0.042,-0.0259,-0.0117,0.0075,0.0238,0.0374,0.0608,0.056,0.0595,0.0618,0.0872,0.0927,0.1055,0.1151,0.0641,0.0642,0.0643,0,-0.0379,-0.0443,-0.0534,-0.0587,-0.0607,-0.065,-0.0675,-0.0622,-0.062,-0.0519,-0.0517,-0.0372,-0.023,0.0033,0.0287,0.0504,0.0646,0.0672,0.0739,0.0897,0.097,0.1001,0.1075,0.0792,0.0795,0.0796,0.0798,0,-0.0458,-0.0491,-0.0568,-0.0691,-0.0749,-0.0814,-0.0837,-0.0857,-0.0776,-0.0708,-0.0602,-0.0484,-0.0201,0.0114,0.0408,0.0548,0.0811,0.0714,0.0882,0.1109,0.1148,0.1244,0.0771,0.0813,0.0811,0.081,0.0809,0.0809,-0.049,-0.0563,-0.0667,-0.0775,-0.0864,-0.0946,-0.097,-0.0946,-0.0906,-0.0691,-0.0613,-0.0254,0.0031,0.0479,0.062,0.0988,0.0938,0.1125,0.1172,0.1183,0.1315,0.0863,0.0933,0.0932,0.0931,0.0931,0.093,0,-0.0516,-0.0612,-0.0734,-0.0869,-0.098,-0.1001,-0.105,-0.0998,-0.0904,-0.0566,-0.0339,0.0231,0.0566,0.0881,0.1272,0.1462,0.15,0.1552,0.1633,0.1683,0.1295,0.1347,0.1507,0.1507,0.1507,0.1507,0.1506,0.1506,-0.0531,-0.0654,-0.0735,-0.0927,-0.1021,-0.109,-0.1103,-0.0964,-0.0711,-0.0145,0.0385,0.0738,0.1064,0.1515,0.1875,0.1905,0.2087,0.2044,0.2127,0.1895,0.186,0.1826,0.1895,0.2167,0.2168,0.2529,0.2532,0.2535]}],[{"header":{"parameterUnit":"m.s-1","parameterCategory":2,"la1":30.2991,"la2":30.254,"lo1":-89.0895,"lo2":-89.0444,"dy":0.0017,"dx":0.0017,"nx":28,"ny":28,"refTime":"2026-02-25T09:00:00:Z","depth":"2","parameterNumber":2,"parameterNumberName":"U-component_of_CURRENTS"},"data":[0,0,0,0,0,0,0,0,0,0,0,0,0,0,0,0,0,0,0,0,0,0,0,0,0,0,0,0,0,0,0,0,0,0,0,0,0,0,0,0,0,0,0,0,0,0,0,0,0,0,0,0,0,0,0,0,0,0,-0.216,-0.2162,0,-0.2229,-0.2229,-0.2229,-0.2212,-0.2211,-0.2211,-0.221,-0.2234,-0.2236,-0.2237,0,0,0,0,0,0,0,0,0,0,0,0,0,-0.2055,-0.2056,-0.216,-0.2162,-0.2164,-0.2229,-0.2229,-0.2229,-0.2212,-0.2211,-0.2211,-0.221,-0.2234,-0.2235,-0.2237,0,0,0,0,0,0,0,0,0,0,0,0,0,-0.2101,-0.2056,-0.216,-0.2169,-0.2171,-0.2229,-0.2229,-0.2229,-0.2212,-0.2211,-0.221,-0.221,-0.2234,-0.2235,-0.2237,-0.2264,0,0,-0.2242,-0.2243,0,0,0,0,0,0,0,0,-0.2098,-0.2104,-0.2166,-0.2169,-0.2171,-0.2219,-0.2201,-0.2242,-0.2212,-0.2187,-0.221,-0.2209,-0.2231,-0.2233,-0.2236,-0.2265,-0.2266,-0.2243,-0.2244,-0.2244,-0.2245,0,0,0,0,0,0,0,-0.2095,-0.2101,-0.2179,-0.2168,-0.2172,-0.2185,-0.2189,-0.2208,-0.2206,-0.219,-0.2191,-0.2212,-0.2231,-0.2235,-0.2237,-0.2267,-0.2242,-0.2244,-0.2245,-0.2246,-0.239,-0.2392,0,0,0,0,0,0,-0.2103,-0.2098,-0.2177,-0.2182,-0.2142,-0.2187,-0.2192,-0.2197,-0.2206,-0.221,-0.2213,-0.2212,-0.2232,-0.2235,-0.2238,-0.2314,-0.2244,-0.2246,-0.2247,-0.2387,-0.239,-0.2393,0,0,0,0,0,0,-0.21,-0.2109,-0.2174,-0.2149,-0.2159,-0.2191,-0.2197,-0.2199,-0.2208,-0.2226,-0.2227,-0.2221,-0.2231,-0.2235,-0.2275,-0.2313,-0.2247,-0.2248,-0.2384,-0.2388,-0.2392,-0.244,0,0,0,0,0,0,-0.2097,-0.2107,-0.2108,-0.2149,-0.2162,-0.2223,-0.2198,-0.2201,-0.2227,-0.2225,-0.2234,-0.2235,-0.2231,-0.2273,-0.2277,-0.2315,-0.225,-0.238,-0.2386,-0.2391,-0.2435,-0.2445,-0.2454,0,0,0,0,0,-0.2092,-0.2114,-0.2107,-0.2117,-0.2163,-0.2226,-0.2233,-0.2246,-0.2228,-0.2246,-0.2254,-0.2235,-0.231,-0.2277,-0.2281,-0.2319,-0.2378,-0.2384,-0.239,-0.2431,-0.2443,-0.2454,0,0,0,0,0,0,-0.2076,-0.2116,-0.2109,-0.2141,-0.2184,-0.2227,-0.225,-0.2254,-0.2272,-0.2271,-0.2263,-0.2266,-0.2316,-0.232,-0.2284,-0.2382,-0.2344,-0.2351,-0.2374,-0.2385,-0.2395,-0.2394,-0.2251,0,0,0,0,0,-0.2072,-0.209,-0.2136,-0.2162,-0.2184,-0.2212,-0.2236,-0.2253,-0.2283,-0.2289,-0.23,-0.232,-0.2347,-0.2365,-0.239,-0.244,-0.2399,-0.2474,-0.2483,-0.2491,-0.2498,-0.2452,-0.2456,-0.2414,-0.2414,-0.2414,0,0,-0.2065,-0.21,-0.2103,-0.216,-0.2187,-0.2234,-0.2223,-0.2278,-0.2317,-0.2291,-0.2341,-0.2351,-0.2368,-0.2424,-0.2449,-0.2431,-0.2486,-0.2499,-0.2505,-0.2507,-0.2459,-0.2462,-0.2465,-0.2418,-0.2418,-0.2417,0,0,-0.2084,-0.2101,-0.212,-0.2172,-0.2238,-0.2261,-0.2279,-0.2332,-0.2353,-0.2406,-0.2401,-0.2434,-0.2476,-0.2501,-0.2514,-0.2596,-0.2534,-0.2613,-0.2663,-0.2618,-0.262,-0.2621,-0.2573,-0.257,-0.2622,-0.2622,-0.2622,0,-0.2073,-0.2114,-0.214,-0.2197,-0.2242,-0.2273,-0.2319,-0.2359,-0.2421,-0.2437,-0.2432,-0.2487,-0.2512,-0.2562,-0.2609,-0.2615,-0.2572,-0.2608,-0.2625,-0.2625,-0.2625,-0.2576,-0.2571,-0.2625,-0.2625,-0.2624,-0.2624,0,-0.2119,-0.2158,-0.219,-0.2253,-0.2299,-0.2363,-0.2422,-0.2463,-0.2481,-0.2508,-0.2558,-0.2586,-0.2609,-0.2641,-0.2657,-0.2691,-0.2654,-0.2631,-0.2581,-0.2631,-0.2578,-0.2572,-0.263,-0.2628,-0.2627,-0.2627,0,0,-0.2074,-0.2189,-0.2203,-0.2235,-0.2342,-0.238,-0.2456,-0.2515,-0.2537,-0.2595,-0.261,-0.2696,-0.2688,-0.2708,-0.2725,-0.2722,-0.2706,-0.2693,-0.2689,-0.2621,-0.2595,-0.2523,-0.2508,-0.2668,-0.2667,-0.2667,-0.2556,0,-0.2097,-0.2196,-0.2252,-0.2332,-0.2376,-0.2443,-0.2501,-0.2562,-0.2595,-0.2623,-0.2658,-0.2684,-0.272,-0.2725,-0.2732,-0.2711,-0.2693,-0.2738,-0.258,-0.2576,-0.2483,-0.25,-0.2325,-0.2208,-0.255,-0.2549,-0.2548,0,-0.2112,-0.2183,-0.2268,-0.2355,-0.2379,-0.2429,-0.2496,-0.2557,-0.2615,-0.2636,-0.2664,-0.2676,-0.2718,-0.2715,-0.2688,-0.2708,-0.2667,-0.2641,-0.2635,-0.2545,-0.2491,-0.2217,-0.2183,-0.2537,-0.2538,-0.2538,-0.2539,0,-0.2055,-0.2178,-0.224,-0.2289,-0.2403,-0.2435,-0.248,-0.255,-0.2584,-0.2631,-0.2631,-0.2666,-0.2661,-0.2634,-0.2623,-0.264,-0.255,-0.2548,-0.2437,-0.2431,-0.2242,-0.222,-0.2498,-0.2498,-0.2498,-0.2498,-0.2499,0,-0.2053,-0.2099,-0.2218,-0.2264,-0.2309,-0.2399,-0.2434,-0.2484,-0.2541,-0.256,-0.2624,-0.2619,-0.2637,-0.2602,-0.2589,-0.2492,-0.2509,-0.2443,-0.2396,-0.2258,-0.2239,-0.2498,-0.25,-0.2494,-0.2495,-0.2496,-0.2496,0,-0.1972,-0.2067,-0.2134,-0.2257,-0.2284,-0.2311,-0.239,-0.2409,-0.2482,-0.2498,-0.251,-0.256,-0.2518,-0.2513,-0.2451,-0.2422,-0.2352,-0.2306,-0.2151,-0.2089,-0.2271,-0.2277,-0.2166,-0.2163,-0.216,-0.2157,-0.2155,0,-0.195,-0.1982,-0.2099,-0.2118,-0.217,-0.2225,-0.2253,-0.2356,-0.238,-0.2453,-0.2444,-0.2434,-0.2389,-0.2283,-0.2224,-0.2134,-0.2236,-0.1936,-0.1955,-0.227,-0.2236,-0.2247,-0.2257,-0.1719,-0.1714,-0.1709,-0.1706,0,-0.1874,-0.1912,-0.1944,-0.2005,-0.2041,-0.2091,-0.2144,-0.216,-0.2274,-0.2294,-0.229,-0.2257,-0.2168,-0.1998,-0.191,-0.1853,-0.1946,-0.1842,-0.2167,-0.1849,-0.1844,-0.1814,-0.1838,-0.1666,-0.167,-0.1673,-0.1675,-0.1676,-0.1774,-0.1774,-0.1813,-0.1842,-0.1893,-0.1935,-0.191,-0.1985,-0.2008,-0.2023,-0.2083,-0.197,-0.1918,-0.1681,-0.1587,-0.1527,-0.1671,-0.1609,-0.1624,-0.1643,-0.163,-0.1622,-0.1399,-0.1401,-0.1403,-0.1405,-0.1407,0,-0.1639,-0.164,-0.1653,-0.1683,-0.1676,-0.1768,-0.1808,-0.1762,-0.1736,-0.1797,-0.177,-0.1534,-0.1404,-0.1362,-0.1196,-0.117,-0.1174,-0.1132,-0.1136,-0.1175,-0.121,-0.1178,-0.0825,-0.0823,-0.0822,-0.082,0,0,-0.1551,-0.1506,-0.1517,-0.1448,-0.1476,-0.1424,-0.1416,-0.1384,-0.1384,-0.1342,-0.1295,-0.1373,-0.1326,-0.1083,-0.1023,-0.0897,-0.1035,-0.0853,-0.1318,-0.1363,-0.1396,-0.1478,-0.147,0,0,0,0,0]},{"header":{"parameterUnit":"m.s-1","parameterCategory":2,"la1":30.2991,"la2":30.254,"lo1":-89.0895,"lo2":-89.0444,"dy":0.0017,"dx":0.0017,"nx":28,"ny":28,"refTime":"2026-02-25T09:00:00:Z","depth":"2","parameterNumber":3,"parameterNumberName":"V-component_of_CURRENTS"},"data":[0,0,0,0,0,0,0,0,0,0,0,0,0,0,0,0,0,0,0,0,0,0,0,0,0,0,0,0,0,0,0,0,0,0,0,0,0,0,0,0,0,0,0,0,0,0,0,0,0,0,0,0,0,0,0,0,0,0,-0.022,-0.0219,0,-0.0152,-0.0151,-0.0151,-0.0091,-0.009,-0.0089,-0.0088,0.0048,0.0051,0.0053,0,0,0,0,0,0,0,0,0,0,0,0,0,-0.0253,-0.0253,-0.022,-0.0219,-0.0217,-0.0152,-0.0151,-0.0151,-0.0091,-0.009,-0.0088,-0.0087,0.0047,0.005,0.0053,0,0,0,0,0,0,0,0,0,0,0,0,0,-0.0222,-0.0253,-0.022,-0.0176,-0.0172,-0.0152,-0.0151,-0.0151,-0.0091,-0.009,-0.0088,-0.0087,0.0046,0.005,0.0054,0.0044,0,0,0.0066,0.0067,0,0,0,0,0,0,0,0,-0.0223,-0.0221,-0.0184,-0.0179,-0.0174,-0.0124,-0.0113,-0.008,-0.0092,-0.0127,-0.0088,-0.0086,-0.0002,0.0006,0.0008,0.0051,0.0057,0.0066,0.0068,0.007,0.0071,0,0,0,0,0,0,0,-0.0226,-0.0223,-0.0198,-0.0183,-0.0176,-0.0144,-0.0139,-0.0107,-0.0077,-0.0123,-0.0118,-0.0104,0.0001,0.0004,0.0012,0.0059,0.0066,0.0069,0.0072,0.0073,0.0187,0.0188,0,0,0,0,0,0,-0.023,-0.0226,-0.02,-0.0195,-0.019,-0.0145,-0.0139,-0.0146,-0.0078,-0.0065,-0.0105,-0.0101,-0.0003,0.0007,0.0017,0.0052,0.007,0.0074,0.0076,0.0187,0.0187,0.0188,0,0,0,0,0,0,-0.0231,-0.0229,-0.0202,-0.0204,-0.0197,-0.0146,-0.0154,-0.0145,-0.0127,-0.0064,-0.0051,-0.0094,-0.0002,0.0012,0.0057,0.0057,0.0075,0.0079,0.0186,0.0187,0.0188,0.0096,0,0,0,0,0,0,-0.0233,-0.0231,-0.0243,-0.0205,-0.0197,-0.0189,-0.0154,-0.0145,-0.012,-0.0114,-0.005,-0.0037,0.0001,0.0051,0.0061,0.0062,0.0082,0.0185,0.0186,0.0188,0.0098,0.0094,0.009,0,0,0,0,0,-0.0235,-0.0251,-0.0245,-0.0241,-0.0215,-0.0189,-0.0184,-0.0143,-0.0121,-0.0121,-0.0071,-0.0038,0.0068,0.0054,0.0066,0.0068,0.0184,0.0186,0.0187,0.01,0.0095,0.009,0,0,0,0,0,0,-0.0272,-0.0245,-0.0237,-0.0246,-0.022,-0.0177,-0.017,-0.0145,-0.011,-0.0093,-0.004,-0.0024,0.0016,0.0059,0.0043,0.011,0.0136,0.0139,0.0065,0.0061,0.0057,0.0053,0.0085,0,0,0,0,0,-0.0288,-0.0295,-0.0261,-0.0269,-0.0256,-0.0216,-0.0201,-0.017,-0.0129,-0.0112,-0.0066,-0.001,0.0027,0.0058,0.0099,0.0129,0.017,0.0145,0.0141,0.0137,0.0145,0.0194,0.0194,0.0193,0.0193,0.0193,0,0,-0.0309,-0.029,-0.0297,-0.0277,-0.0253,-0.025,-0.0203,-0.0175,-0.0169,-0.0102,-0.0076,-0.0028,0.0032,0.0065,0.0088,0.0104,0.0158,0.0139,0.0135,0.0145,0.0195,0.0195,0.0195,0.0195,0.0194,0.0194,0,0,-0.0345,-0.0331,-0.035,-0.033,-0.0289,-0.0265,-0.0257,-0.0209,-0.0183,-0.0157,-0.0103,-0.0053,0.0002,0.0048,0.0075,0.0077,0.013,0.0099,0.0077,0.0123,0.0123,0.0124,0.0162,0.0167,0.0102,0.0102,0.0101,0,-0.0371,-0.039,-0.035,-0.0353,-0.0339,-0.0276,-0.0287,-0.0259,-0.0201,-0.0176,-0.0155,-0.0058,-0.001,0.0036,0.0042,0.0065,0.0102,0.008,0.0115,0.0116,0.0118,0.0158,0.0165,0.0097,0.0098,0.0098,0.0099,0,-0.0415,-0.043,-0.0431,-0.0425,-0.0406,-0.0396,-0.0347,-0.0321,-0.0281,-0.0243,-0.0183,-0.0116,-0.0054,-0.0031,0.0004,0.005,0.0074,0.0093,0.0116,0.0112,0.0155,0.0163,0.0091,0.0093,0.0094,0.0095,0,0,-0.0476,-0.0471,-0.0471,-0.0482,-0.0438,-0.0426,-0.0409,-0.0374,-0.0352,-0.029,-0.0261,-0.0187,-0.0127,-0.0089,-0.0029,0.0021,0.0058,0.0064,0.0068,0.0083,0.016,0.0189,0.0201,0.0081,0.0083,0.0084,0.0178,0,-0.0527,-0.0562,-0.0535,-0.0563,-0.0579,-0.0513,-0.0504,-0.0452,-0.0399,-0.0352,-0.0263,-0.0211,-0.0157,-0.0119,-0.0065,0.0033,0.0079,0.0031,0.018,0.0184,0.0195,0.0212,0.0201,0.0286,0.0186,0.0188,0.0189,0,-0.0586,-0.0597,-0.0641,-0.0635,-0.0631,-0.0632,-0.0585,-0.0563,-0.0475,-0.0427,-0.035,-0.0272,-0.0181,-0.0141,0.0012,-0.002,0.0064,0.0136,0.0141,0.0211,0.023,0.0281,0.0306,0.0203,0.0202,0.0201,0.02,0,-0.0658,-0.0673,-0.0711,-0.0709,-0.0688,-0.0685,-0.0663,-0.0587,-0.0556,-0.0465,-0.0427,-0.0311,-0.0243,-0.0128,0.0026,0.0022,0.0191,0.0199,0.0303,0.0305,0.035,0.0354,0.03,0.03,0.03,0.0299,0.0299,0,-0.0732,-0.0759,-0.0749,-0.0771,-0.0793,-0.0746,-0.074,-0.0696,-0.062,-0.0576,-0.0466,-0.0402,-0.0233,-0.0111,0.0013,0.0189,0.018,0.031,0.0338,0.0317,0.0318,0.0292,0.029,0.0303,0.0302,0.0301,0.0301,0,-0.0817,-0.0812,-0.0855,-0.0844,-0.0838,-0.0851,-0.0804,-0.0788,-0.0708,-0.0649,-0.0619,-0.0461,-0.0294,-0.0129,0.0073,0.0177,0.0333,0.0393,0.0356,0.0379,0.0417,0.0409,0.0517,0.0519,0.0521,0.0522,0.0523,0,-0.0861,-0.0899,-0.0917,-0.0933,-0.0932,-0.0931,-0.0921,-0.0847,-0.0817,-0.0676,-0.0651,-0.0476,-0.033,-0.0033,0.0176,0.0394,0.0387,0.0503,0.0497,0.0426,0.0443,0.0432,0.0422,0.0515,0.0516,0.0517,0.0518,0,-0.0946,-0.0957,-0.0988,-0.1024,-0.1033,-0.1031,-0.1009,-0.0998,-0.089,-0.0801,-0.0652,-0.052,-0.023,0.0031,0.0301,0.0422,0.0466,0.0528,0.0479,0.0457,0.0431,0.0445,0.0434,0.0525,0.0525,0.0524,0.0524,0.0523,-0.1002,-0.1041,-0.108,-0.1108,-0.1117,-0.1115,-0.1111,-0.1056,-0.0978,-0.0826,-0.067,-0.0444,-0.0192,0.0201,0.0399,0.0561,0.0557,0.0607,0.0602,0.0596,0.0574,0.0552,0.0665,0.0665,0.0665,0.0665,0.0665,0,-0.1074,-0.1107,-0.1148,-0.1175,-0.1189,-0.1172,-0.1148,-0.1109,-0.1011,-0.0847,-0.0649,-0.0322,-0.0017,0.0206,0.0484,0.0666,0.0642,0.068,0.0623,0.0616,0.061,0.0586,0.0681,0.0681,0.0682,0.0682,0,0,-0.1118,-0.1174,-0.1186,-0.122,-0.123,-0.1226,-0.121,-0.1131,-0.102,-0.0816,-0.063,-0.0354,-0.0047,0.0164,0.04,0.0535,0.0513,0.0539,0.0511,0.0408,0.0398,0.056,0.0515,0,0,0,0,0]}],[{"header":{"parameterUnit":"m.s-1","parameterCategory":2,"la1":30.2991,"la2":30.254,"lo1":-89.0895,"lo2":-89.0444,"dy":0.0017,"dx":0.0017,"nx":28,"ny":28,"refTime":"2026-02-25T09:00:00:Z","depth":"4","parameterNumber":2,"parameterNumberName":"U-component_of_CURRENTS"},"data":[0,0,0,0,0,0,0,0,0,0,0,0,0,0,0,0,0,0,0,0,0,0,0,0,0,0,0,0,0,0,0,0,0,0,0,0,0,0,0,0,0,0,0,0,0,0,0,0,0,0,0,0,0,0,0,0,0,0,-0.1328,-0.1329,0,-0.1372,-0.1373,-0.1373,-0.1412,-0.1412,-0.1413,-0.1413,-0.1488,-0.1489,-0.1491,0,0,0,0,0,0,0,0,0,0,0,0,0,-0.1319,-0.1318,-0.1328,-0.1329,-0.1329,-0.1372,-0.1373,-0.1373,-0.1412,-0.1412,-0.1413,-0.1413,-0.1487,-0.1489,-0.1491,0,0,0,0,0,0,0,0,0,0,0,0,0,-0.1338,-0.1318,-0.1328,-0.1354,-0.1357,-0.1372,-0.1373,-0.1374,-0.1412,-0.1412,-0.1413,-0.1414,-0.1487,-0.1489,-0.1491,-0.1492,0,0,-0.1498,-0.1499,0,0,0,0,0,0,0,0,-0.1337,-0.1339,-0.1349,-0.1352,-0.1355,-0.1388,-0.1397,-0.1415,-0.1411,-0.139,-0.1413,-0.1414,-0.1457,-0.1462,-0.1467,-0.1495,-0.1498,-0.1499,-0.15,-0.1501,-0.1502,0,0,0,0,0,0,0,-0.1336,-0.1337,-0.1345,-0.135,-0.1353,-0.1378,-0.1381,-0.1401,-0.1419,-0.1392,-0.1395,-0.14,-0.1459,-0.1465,-0.147,-0.1499,-0.1498,-0.1501,-0.1502,-0.1503,-0.1635,-0.1637,0,0,0,0,0,0,-0.1328,-0.1335,-0.1344,-0.1347,-0.1348,-0.1377,-0.1381,-0.1376,-0.1419,-0.1426,-0.14,-0.1402,-0.1461,-0.1467,-0.1472,-0.1563,-0.1501,-0.1503,-0.1504,-0.1633,-0.1636,-0.1638,0,0,0,0,0,0,-0.1327,-0.1328,-0.1342,-0.1343,-0.1347,-0.1376,-0.1371,-0.1377,-0.1406,-0.1424,-0.1432,-0.1427,-0.1462,-0.1469,-0.1523,-0.1563,-0.1504,-0.1506,-0.163,-0.1634,-0.1637,-0.1689,0,0,0,0,0,0,-0.1327,-0.1327,-0.1334,-0.1342,-0.1346,-0.1371,-0.1371,-0.1377,-0.1407,-0.1411,-0.1449,-0.1455,-0.1463,-0.152,-0.1526,-0.1565,-0.1508,-0.1628,-0.1632,-0.1636,-0.1684,-0.1693,-0.1701,0,0,0,0,0,-0.1326,-0.133,-0.1333,-0.1335,-0.135,-0.1372,-0.1377,-0.14,-0.1408,-0.1428,-0.1461,-0.1455,-0.155,-0.1524,-0.153,-0.1571,-0.1626,-0.1631,-0.1635,-0.1681,-0.1692,-0.1701,0,0,0,0,0,0,-0.1329,-0.1334,-0.1338,-0.1343,-0.1365,-0.1379,-0.14,-0.1412,-0.1452,-0.1463,-0.1478,-0.1488,-0.1554,-0.1555,-0.1526,-0.1623,-0.1588,-0.1595,-0.1621,-0.1631,-0.1639,-0.1635,-0.151,0,0,0,0,0,-0.133,-0.1335,-0.1348,-0.1355,-0.1368,-0.1387,-0.1403,-0.1419,-0.1448,-0.1466,-0.1496,-0.1532,-0.1574,-0.1596,-0.163,-0.1675,-0.1664,-0.1708,-0.1717,-0.1724,-0.1726,-0.1757,-0.1768,-0.1653,-0.1653,-0.1653,0,0,-0.1328,-0.1337,-0.1337,-0.1357,-0.1375,-0.1409,-0.14,-0.1431,-0.147,-0.1468,-0.154,-0.1565,-0.1595,-0.1655,-0.1684,-0.1662,-0.1748,-0.173,-0.1735,-0.1734,-0.1763,-0.1774,-0.1783,-0.1657,-0.1656,-0.1656,0,0,-0.1336,-0.1342,-0.1354,-0.1381,-0.1416,-0.1433,-0.1448,-0.148,-0.151,-0.1572,-0.1588,-0.1635,-0.1696,-0.1723,-0.1743,-0.1816,-0.1795,-0.1834,-0.1868,-0.1898,-0.1907,-0.1915,-0.1897,-0.1903,-0.1833,-0.1833,-0.1833,0,-0.1338,-0.1355,-0.1364,-0.1398,-0.143,-0.145,-0.1488,-0.152,-0.1572,-0.16,-0.1609,-0.1707,-0.173,-0.1795,-0.1827,-0.1834,-0.1832,-0.1824,-0.1907,-0.1915,-0.1922,-0.1902,-0.1908,-0.1836,-0.1836,-0.1835,-0.1835,0,-0.1353,-0.1388,-0.1404,-0.1453,-0.149,-0.1524,-0.1571,-0.1616,-0.1655,-0.1682,-0.1762,-0.1795,-0.1849,-0.1869,-0.1873,-0.1941,-0.1915,-0.1915,-0.1875,-0.1936,-0.1912,-0.1917,-0.1841,-0.1839,-0.1839,-0.1838,0,0,-0.1298,-0.1394,-0.1403,-0.145,-0.1524,-0.1553,-0.1629,-0.169,-0.1739,-0.1794,-0.1855,-0.1925,-0.1933,-0.1957,-0.1967,-0.1991,-0.2035,-0.1979,-0.1979,-0.1949,-0.2073,-0.1916,-0.1905,-0.2055,-0.2056,-0.2058,-0.2028,0,-0.1311,-0.1384,-0.1435,-0.1522,-0.1565,-0.1629,-0.17,-0.1762,-0.1816,-0.1881,-0.1913,-0.1978,-0.197,-0.2002,-0.2029,-0.2042,-0.2055,-0.2041,-0.2029,-0.2028,-0.1871,-0.1909,-0.2064,-0.2031,-0.2032,-0.2033,-0.2034,0,-0.1302,-0.136,-0.1444,-0.1567,-0.1593,-0.1658,-0.1766,-0.1832,-0.1918,-0.196,-0.2015,-0.204,-0.209,-0.2077,-0.2113,-0.2107,-0.2099,-0.2094,-0.2093,-0.193,-0.188,-0.1965,-0.2043,-0.2042,-0.2041,-0.2041,-0.204,0,-0.1245,-0.1367,-0.1438,-0.1479,-0.1615,-0.1678,-0.1754,-0.1853,-0.1913,-0.2008,-0.2048,-0.2106,-0.2137,-0.2154,-0.2138,-0.2142,-0.2152,-0.2154,-0.1996,-0.1983,-0.211,-0.2102,-0.218,-0.218,-0.218,-0.218,-0.218,0,-0.1223,-0.1285,-0.1425,-0.1463,-0.1562,-0.1666,-0.1771,-0.1847,-0.1955,-0.2011,-0.2082,-0.211,-0.2164,-0.2167,-0.2155,-0.2069,-0.2165,-0.1997,-0.1971,-0.213,-0.2125,-0.2111,-0.2104,-0.2179,-0.2179,-0.2179,-0.218,0,-0.1145,-0.1241,-0.1327,-0.1479,-0.1538,-0.1604,-0.1777,-0.184,-0.1949,-0.2023,-0.2054,-0.2125,-0.2115,-0.2124,-0.2134,-0.2063,-0.2019,-0.1966,-0.2103,-0.2087,-0.1824,-0.182,-0.1789,-0.1783,-0.1778,-0.1774,-0.1771,0,-0.1111,-0.1147,-0.1308,-0.137,-0.1449,-0.1575,-0.1662,-0.1815,-0.1875,-0.2003,-0.2015,-0.2049,-0.2071,-0.1932,-0.1972,-0.1909,-0.189,-0.1851,-0.1865,-0.1809,-0.1788,-0.1791,-0.1794,-0.1763,-0.1762,-0.1761,-0.1759,0,-0.1034,-0.1096,-0.1163,-0.1281,-0.1389,-0.1504,-0.1634,-0.1668,-0.1824,-0.1932,-0.1913,-0.1888,-0.186,-0.1826,-0.1776,-0.1744,-0.1873,-0.1801,-0.1811,-0.1824,-0.1777,-0.1762,-0.177,-0.1743,-0.1745,-0.1747,-0.1748,0,-0.0969,-0.0986,-0.1079,-0.1179,-0.1307,-0.1395,-0.1487,-0.1559,-0.1636,-0.1775,-0.1757,-0.1783,-0.1841,-0.1739,-0.1704,-0.1642,-0.1624,-0.1578,-0.16,-0.1619,-0.1575,-0.1491,-0.1342,0,0,0,0,0,-0.0898,-0.091,-0.098,-0.1087,-0.1207,-0.1284,-0.1451,-0.1542,-0.1686,-0.1624,-0.1687,-0.165,-0.1581,-0.1595,-0.1492,-0.163,-0.1636,-0.1504,-0.1598,-0.165,-0.167,-0.1633,0,0,0,0,0,0,-0.0856,-0.09,-0.0929,-0.099,-0.104,-0.1166,-0.1266,-0.1372,-0.1352,-0.1482,-0.1445,-0.1528,-0.1479,-0.1589,-0.1442,-0.1447,-0.1469,-0.1529,-0.1524,-0.1639,-0.1657,-0.1672,-0.1641,0,0,0,0,0]},{"header":{"parameterUnit":"m.s-1","parameterCategory":2,"la1":30.2991,"la2":30.254,"lo1":-89.0895,"lo2":-89.0444,"dy":0.0017,"dx":0.0017,"nx":28,"ny":28,"refTime":"2026-02-25T09:00:00:Z","depth":"4","parameterNumber":3,"parameterNumberName":"V-component_of_CURRENTS"},"data":[0,0,0,0,0,0,0,0,0,0,0,0,0,0,0,0,0,0,0,0,0,0,0,0,0,0,0,0,0,0,0,0,0,0,0,0,0,0,0,0,0,0,0,0,0,0,0,0,0,0,0,0,0,0,0,0,0,0,-0.0343,-0.0343,0,-0.0338,-0.0338,-0.0338,-0.032,-0.032,-0.032,-0.0319,-0.0273,-0.0272,-0.0271,0,0,0,0,0,0,0,0,0,0,0,0,0,-0.0283,-0.0285,-0.0343,-0.0343,-0.0343,-0.0338,-0.0338,-0.0338,-0.032,-0.032,-0.032,-0.0319,-0.0273,-0.0272,-0.0271,0,0,0,0,0,0,0,0,0,0,0,0,0,-0.0296,-0.0285,-0.0343,-0.0335,-0.0334,-0.0338,-0.0338,-0.0338,-0.032,-0.032,-0.032,-0.0319,-0.0274,-0.0272,-0.0271,-0.027,0,0,-0.0266,-0.0266,0,0,0,0,0,0,0,0,-0.0295,-0.0298,-0.0336,-0.0335,-0.0335,-0.0331,-0.03,-0.0314,-0.032,-0.0324,-0.0319,-0.0319,-0.029,-0.0287,-0.0285,-0.0268,-0.0266,-0.0266,-0.0265,-0.0265,-0.0264,0,0,0,0,0,0,0,-0.0294,-0.0298,-0.0339,-0.0336,-0.0335,-0.0313,-0.0315,-0.0303,-0.0307,-0.0324,-0.0323,-0.0325,-0.0289,-0.0287,-0.0284,-0.0265,-0.0266,-0.0265,-0.0264,-0.0263,-0.0227,-0.0227,0,0,0,0,0,0,-0.0302,-0.0297,-0.034,-0.0339,-0.0315,-0.0315,-0.0317,-0.0331,-0.0308,-0.0305,-0.0325,-0.0324,-0.029,-0.0286,-0.0282,-0.0278,-0.0265,-0.0263,-0.0262,-0.0227,-0.0227,-0.0227,0,0,0,0,0,0,-0.0301,-0.0306,-0.034,-0.0318,-0.0321,-0.0317,-0.0333,-0.0331,-0.0331,-0.031,-0.0306,-0.0327,-0.0289,-0.0284,-0.027,-0.0276,-0.0263,-0.0261,-0.0227,-0.0227,-0.0227,-0.027,0,0,0,0,0,0,-0.0299,-0.0306,-0.0322,-0.032,-0.0323,-0.0349,-0.0333,-0.0332,-0.0334,-0.0332,-0.031,-0.0305,-0.0288,-0.0272,-0.0268,-0.0273,-0.026,-0.0227,-0.0227,-0.0227,-0.0268,-0.0271,-0.0273,0,0,0,0,0,-0.0297,-0.0324,-0.0323,-0.0328,-0.0345,-0.035,-0.0349,-0.0343,-0.0334,-0.034,-0.0319,-0.0306,-0.0268,-0.0271,-0.0267,-0.0271,-0.0227,-0.0227,-0.0227,-0.0267,-0.027,-0.0273,0,0,0,0,0,0,-0.0312,-0.0325,-0.0324,-0.0355,-0.0354,-0.0347,-0.0355,-0.0347,-0.0336,-0.0331,-0.0307,-0.0301,-0.0288,-0.0273,-0.0277,-0.0259,-0.0245,-0.0244,-0.0277,-0.028,-0.0282,-0.0292,-0.0259,0,0,0,0,0,-0.0322,-0.0345,-0.0346,-0.0371,-0.037,-0.0362,-0.0364,-0.0358,-0.0347,-0.0342,-0.0326,-0.0304,-0.0285,-0.0278,-0.0258,-0.0253,-0.0209,-0.0251,-0.0254,-0.0256,-0.0259,-0.0187,-0.0184,-0.0226,-0.0226,-0.0226,0,0,-0.0339,-0.0346,-0.0362,-0.0375,-0.0372,-0.0381,-0.0362,-0.0367,-0.0373,-0.0338,-0.0339,-0.0312,-0.0283,-0.0274,-0.0267,-0.0263,-0.022,-0.0256,-0.0258,-0.026,-0.0187,-0.0182,-0.0179,-0.0226,-0.0226,-0.0226,0,0,-0.0372,-0.0383,-0.0406,-0.0406,-0.0405,-0.0399,-0.0402,-0.0394,-0.0388,-0.0385,-0.0356,-0.0333,-0.0313,-0.0292,-0.0278,-0.0283,-0.0232,-0.0276,-0.0301,-0.0231,-0.0227,-0.0223,-0.0158,-0.0147,-0.0281,-0.0281,-0.0281,0,-0.039,-0.0419,-0.0413,-0.0425,-0.043,-0.041,-0.0425,-0.0419,-0.0408,-0.04,-0.039,-0.034,-0.0322,-0.0298,-0.0303,-0.029,-0.0238,-0.0295,-0.0234,-0.0229,-0.0224,-0.0158,-0.0146,-0.0283,-0.0283,-0.0283,-0.0282,0,-0.0429,-0.0452,-0.0463,-0.0475,-0.0476,-0.0488,-0.0475,-0.0472,-0.0458,-0.0445,-0.0416,-0.038,-0.0348,-0.0341,-0.0328,-0.0288,-0.0258,-0.0242,-0.0228,-0.0222,-0.0153,-0.014,-0.0286,-0.0285,-0.0285,-0.0284,0,0,-0.0472,-0.049,-0.0494,-0.0504,-0.0502,-0.0508,-0.0512,-0.0507,-0.0499,-0.0477,-0.0456,-0.043,-0.0396,-0.0378,-0.0346,-0.0299,-0.0226,-0.0263,-0.0259,-0.0202,-0.0063,-0.0068,-0.0054,-0.0191,-0.0189,-0.0187,-0.0028,0,-0.0505,-0.0542,-0.0539,-0.057,-0.0585,-0.0565,-0.0568,-0.0555,-0.0532,-0.0503,-0.0456,-0.0423,-0.0413,-0.0386,-0.0339,-0.025,-0.0193,-0.027,-0.0075,-0.0069,-0.0077,-0.004,-0.0181,-0.0018,-0.0014,-0.0012,-0.0011,0,-0.0541,-0.0561,-0.0602,-0.0611,-0.0614,-0.0629,-0.0616,-0.0613,-0.0567,-0.0539,-0.0494,-0.0444,-0.0381,-0.0363,-0.0213,-0.0257,-0.0168,-0.0099,-0.0091,-0.0073,-0.005,-0.0024,0.0014,0.0012,0.001,0.0009,0.0007,0,-0.0572,-0.0602,-0.0638,-0.0645,-0.0653,-0.0664,-0.0662,-0.0631,-0.0616,-0.0555,-0.052,-0.0437,-0.0376,-0.0265,-0.0144,-0.0161,0.0039,0.0039,0.0121,0.0122,0.0097,0.0091,0.016,0.0159,0.0159,0.0159,0.0158,0,-0.0607,-0.0635,-0.066,-0.0681,-0.0712,-0.0697,-0.0708,-0.0688,-0.0639,-0.0605,-0.0539,-0.0474,-0.0344,-0.0223,-0.012,0.0041,0.0066,0.0128,0.0167,0.0075,0.0065,0.0107,0.0099,0.0165,0.0163,0.0162,0.0161,0,-0.0638,-0.0657,-0.0699,-0.0722,-0.0734,-0.0754,-0.075,-0.0742,-0.0689,-0.0634,-0.061,-0.048,-0.0317,-0.0186,0.0016,0.0078,0.0227,0.028,0.0178,0.0207,0.0258,0.0246,0.0393,0.0394,0.0395,0.0396,0.0396,0,-0.0657,-0.0686,-0.0737,-0.0766,-0.0786,-0.0809,-0.0819,-0.078,-0.0756,-0.0629,-0.0594,-0.043,-0.0334,-0.004,0.0078,0.0285,0.03,0.0371,0.03,0.0261,0.0285,0.0271,0.0257,0.0398,0.0398,0.0399,0.0399,0,-0.0688,-0.0714,-0.0748,-0.0812,-0.0845,-0.0863,-0.0867,-0.0845,-0.0768,-0.0721,-0.0537,-0.0383,-0.0196,-0.0011,0.0148,0.0286,0.0315,0.0382,0.038,0.0314,0.027,0.0289,0.0274,0.0402,0.0402,0.0402,0.0401,0,-0.0708,-0.0739,-0.0792,-0.0841,-0.0889,-0.0899,-0.0894,-0.0825,-0.0776,-0.0623,-0.0556,-0.0346,-0.0219,-0.0006,0.014,0.0271,0.029,0.031,0.0312,0.031,0.0215,0.0142,0.0282,0,0,0,0,0,-0.0717,-0.0754,-0.0812,-0.0859,-0.0908,-0.0931,-0.0916,-0.0889,-0.0809,-0.0674,-0.0604,-0.0417,-0.0156,-0.0041,0.0094,0.0112,0.0269,0.0267,0.0282,0.0422,0.0418,0.0317,0,0,0,0,0,0,-0.0723,-0.0782,-0.0811,-0.0869,-0.0903,-0.0939,-0.0931,-0.0874,-0.0779,-0.0675,-0.0527,-0.0412,-0.0165,-0.0233,0.0089,0.0129,0.015,0.0397,0.0399,0.0425,0.0421,0.0418,0.0312,0,0,0,0,0]}]]